Location: LC-39B
(28.6273°N, 80.6211°W)
Time: 04:01:36
(UTC+00:00)

ISS - Visible Passes

Search period start: 31 October 2014 00:00
Search period end: 10 November 2014 00:00
Orbit: 412 x 417 km, 51.6° (Epoch: 30 October)

Date Brightness Start Highest point End Pass type
(mag) Time Alt. Az. Time Alt. Az. Time Alt. Az.
07 Nov -0.8 10:29:44 10° S 10:32:26 24° SE 10:35:09 10° ENE visible
08 Nov 0.0 09:41:59 10° SE 09:43:09 11° SE 09:44:18 10° ESE visible
08 Nov -2.7 11:16:23 10° WSW 11:19:30 38° NW 11:22:37 10° NNE visible
09 Nov -3.4 10:28:06 23° SW 10:29:59 85° NW 10:33:18 10° NE visible
